This demonstration page uses our WeatherBlox Daily Observations layout. Learn more.

Left ArrowRight Arrow

39.29038, -76.61219

Hourly Observations for December 29, 2020

Temp ( °F °C ) Dew Point ( °F °C ) Humidity (%) Winds ( mph kmh ) Pressure ( in mb ) Visibility ( mi km ) Precip ( " mm )
12:54 am 00:54 Mostly Clear 41 5 26 -3.3 55 55 WNW 8 13 30.24 1024 10 16 0.00 0.00
1:54 am 01:54 Mostly Clear 42 5.6 23 -5 47 47 NW 12 19 30.25 1024 10 16 0.00 0.00
2:54 am 02:54 Mostly Clear 41 5 24 -4.4 51 51 NW 16 26 30.29 1026 10 16 0.00 0.00
3:54 am 03:54 Mostly Cloudy 38 3.3 24 -4.4 57 57 WNW 7 11 30.32 1027 10 16 0.00 0.00
4:54 am 04:54 Mostly Cloudy 39 3.9 23 -5 53 53 WNW 7 11 30.34 1027 10 16 0.00 0.00
5:54 am 05:54 Mostly Cloudy 37 2.8 21 -6.1 52 52 W 8 13 30.37 1028 10 16 0.00 0.00
6:54 am 06:54 Mostly Cloudy 37 2.8 21 -6.1 52 52 WNW 10 17 30.41 1030 10 16 0.00 0.00
7:54 am 07:54 Mostly Cloudy 38 3.3 22 -5.6 52 52 NW 9 15 30.43 1031 10 16 0.00 0.00
8:54 am 08:54 Partly Cloudy 39 3.9 18 -7.8 43 43 NW 13 20 30.48 1032 10 16 0.00 0.00
9:54 am 09:54 Partly Cloudy 40 4.4 15 -9.4 36 36 NW 12 19 30.51 1033 10 16 0.00 0.00
10:54 am 10:54 Mostly Sunny 40 4.4 9 -12.8 28 28 NW 14 22 30.52 1034 10 16 0.00 0.00
11:54 am 11:54 Mostly Sunny 40 4.4 9 -12.8 28 28 NW 10 17 30.50 1033 10 16 0.00 0.00
12:39 pm 12:39 Mostly Sunny 41 5 10 -12.2 28 28 NNW 10 17 30.51 1033 10 16 0.00 0.00
12:54 pm 12:54 Mostly Sunny 42 5.6 11 -11.7 28 28 WNW 14 22 30.49 1033 10 16 0.00 0.00
1:54 pm 13:54 Mostly Sunny 42 5.6 11 -11.7 28 28 NW 14 22 30.49 1032 10 16 0.00 0.00
2:54 pm 14:54 Mostly Sunny 42 5.6 12 -11.1 29 29 NW 12 19 30.49 1033 10 16 0.00 0.00
3:54 pm 15:54 Mostly Sunny 40 4.4 12 -11.1 32 32 NNW 10 17 30.50 1033 10 16 0.00 0.00
4:54 pm 16:54 Clear 36 2.2 13 -10.6 39 39 WNW 6 9 30.53 1034 10 16 0.00 0.00
5:54 pm 17:54 Clear 33 0.6 13 -10.6 43 43 WNW 6 9 30.54 1034 10 16 0.00 0.00
6:54 pm 18:54 Clear 32 0 14 -10 47 47 Calm 30.54 1034 10 16 0.00 0.00
7:54 pm 19:54 Mostly Clear 30 -1.1 15 -9.4 54 54 W 3 6 30.55 1035 10 16 0.00 0.00
8:54 pm 20:54 Clear 30 -1.1 15 -9.4 54 54 W 5 7 30.56 1035 10 16 0.00 0.00
9:54 pm 21:54 Mostly Clear 28 -2.2 15 -9.4 58 58 Calm 30.58 1036 10 16 0.00 0.00
10:54 pm 22:54 Mostly Clear 27 -2.8 16 -8.9 63 63 Calm 30.58 1035 10 16 0.00 0.00
11:54 pm 23:54 Mostly Cloudy 27 -2.8 17 -8.3 66 66 Calm 30.56 1035 10 16 0.00 0.00

Powered by AerisWeather